STARLINK-33947

Last updated on Mon Jun 02 2025 00:02:04 GMT+0000 (Coordinated Universal Time)

1 63787U 25091N 25152.58335648 -.01086168 00000+0 -27533-1 0 9997 2 63787 43.0000 200.8860 0001524 266.6791 3.8231 15.41565643 5982

Satellite not in orbit